Location: Bonneville
(49.2581°N, 0.7622°E)
Time: 19:18:59
(UTC+00:00)

Daily predictions for brighter satellites

Satellite Brightness Start Highest point End
(mag) Time Altitude Azimuth Time Altitude Azimuth Time Altitude Azimuth
Cosmos 1844 Rocket 2.8 17:57:45 10° SSW 18:03:20 90° SE 18:08:59 10° NNE
Okean-O 2.7 17:59:50 10° SSE 18:04:13 63° ENE 18:08:37 10° N
Cosmos 2151 Rocket 3.7 18:01:14 10° S 18:05:38 57° E 18:10:06 10° NNE
Cosmos 1689 Rocket 2.0 18:02:46 10° NNE 18:05:45 81° ESE 18:08:42 10° SSW
CZ-2C R/B 3.6 18:00:49 10° SE 18:06:07 47° ENE 18:11:38 10° N
H-2A R/B 2.7 18:03:22 10° SE 18:08:00 36° ENE 18:12:46 10° N
KORONAS-FOTON 4.0 18:09:17 10° N 18:13:10 53° ENE 18:16:58 10° SSE
Meteor 1-12 Rocket 4.4 18:08:16 10° S 18:14:05 90° NW 18:19:50 10° NNE
Cosmos 2285 Rocket 4.1 18:08:19 10° S 18:14:31 63° ESE 18:20:50 10° NNE
Cosmos 1025 Rocket 3.4 18:11:34 10° NNW 18:15:58 73° W 18:20:20 10° S
Cosmos 1300 Rocket 3.7 18:12:37 10° SSW 18:17:03 82° W 18:21:32 10° N
ISS -3.4 18:14:36 10° WNW 18:17:56 59° N 18:21:09 11° E
Cosmos 1805 3.7 18:17:23 10° SSE 18:21:04 40° E 18:24:44 10° NNE
TSX-5 4.2 18:17:20 10° SSW 18:21:23 61° ESE 18:26:40 10° NE
Cosmos 2278 Rocket 2.9 18:18:44 10° SSE 18:23:34 30° ESE 18:28:26 10° NE
Cosmos 1125 Rocket 3.8 18:24:28 10° SSW 18:29:48 78° WNW 18:35:09 10° NNE
Cosmos 1833 Rocket 2.8 18:24:21 10° NNW 18:29:57 56° NE 18:35:30 10° SE
Cosmos 1844 4.0 18:24:48 10° SW 18:30:28 73° WNW 18:36:06 10° NNE
Nadezhda 4 Rocket 4.0 18:24:56 10° N 18:31:06 89° E 18:37:16 10° S
Cosmos 2251 Rocket 4.4 18:26:33 10° N 18:31:21 32° NE 18:35:38 12° ESE
HJ-1C 3.7 18:28:30 10° SE 18:31:39 43° ENE 18:34:50 10° N
CSL-04 Rocket 3.7 18:26:15 10° SSE 18:31:41 65° ENE 18:37:11 10° N
Okean 1 Rocket 3.2 18:27:51 10° S 18:32:12 51° E 18:36:33 10° NNE
COSMOS 2406 3.2 18:30:40 10° NNW 18:36:22 79° ENE 18:42:04 10° SSE
Cosmos 1340 Rocket 3.5 18:33:39 10° SSE 18:37:14 32° E 18:40:51 10° NNE
CSL-04 Debris 4.1 18:32:05 10° SSE 18:37:27 74° ENE 18:42:52 10° NNW
Lacrosse 4 Rocket 1.5 18:37:56 10° NNW 18:41:57 52° NE 18:45:16 15° SE
YAOGAN 1 2.8 18:37:51 10° S 18:42:10 75° WSW 18:46:31 10° NNW
Cosmos 1674 3.1 18:39:38 10° NNW 18:43:28 67° W 18:47:15 10° S
Lacrosse 5 rocket 1.9 18:39:29 10° NW 18:43:47 52° NNE 18:46:58 18° E
CZ-4C R/B 2.9 18:44:32 10° S 18:48:39 26° ESE 18:53:21 10° ENE
Exosat Rocket 3.6 18:45:51 10° SSW 18:50:59 84° WNW 18:56:10 10° NNE
Shenzhou-11 Module 3.8 18:53:37 10° SSW 18:54:07 11° SSW 18:54:23 10° S
CZ-4 R/B 2.6 18:51:17 10° S 18:55:17 45° W 18:59:15 10° NNW
Meteor 1-15 Rocket 4.5 18:51:08 10° SSW 18:56:51 78° WNW 19:02:43 10° N
Cosmos 1892 Rocket 3.7 18:53:36 10° N 18:57:51 48° ENE 19:01:33 13° SSE
ARGOS 3.1 18:54:03 10° SSE 18:59:24 72° ENE 19:04:47 10° N
FREGAT/IRIS 4.3 19:01:26 16° NE 19:01:26 16° NE 19:02:22 10° NNE
Meteor 1-24 Rocket 3.7 18:54:50 10° N 19:00:32 79° ENE 19:06:25 10° SSE
CZ-2C R/B 3.3 18:56:39 10° NNE 19:01:45 35° E 19:06:50 10° SSE
MOS 1 Rocket 3.0 18:57:33 10° NNE 19:01:50 63° E 19:06:05 10° S
APEX 3.8 18:59:58 10° S 19:02:55 30° ESE 19:03:27 28° E
Cosmos 1626 2.0 19:00:00 10° N 19:03:43 88° ENE 19:07:25 10° S
USA 186 2.1 19:04:00 31° ESE 19:05:02 43° ENE 19:08:10 10° N
Meteor 1-22 Rocket 4.3 19:01:32 10° S 19:07:31 71° E 19:13:37 10° NNE
Aureole 2 Rocket 2.4 19:05:25 10° SSW 19:08:43 75° WNW 19:11:58 10° NNE
Cosmos 1470 3.2 19:08:02 24° SE 19:09:44 36° E 19:13:18 10° NNE
SL-14 R/B 3.2 19:05:48 10° N 19:09:48 89° ENE 19:13:49 10° S
Ariane Rocket 3.1 19:06:14 17° SE 19:10:04 54° ENE 19:15:02 10° N
Resurs 01 Rocket 3.1 19:10:02 19° ENE 19:10:08 19° ENE 19:13:16 10° NNE
Cosmos 1766 3.6 19:08:09 10° SSW 19:12:05 68° WNW 19:16:04 10° N
USA 116 4.3 19:09:16 10° N 19:13:12 65° WNW 19:17:38 10° SSW
NOSS 3-4 (A) 3.7 19:08:54 10° SW 19:14:50 70° NW 19:21:17 10° NE
NOSS 3-4 (C) 3.7 19:09:00 10° SW 19:14:56 70° NW 19:21:23 10° NE
SL-8 R/B 4.4 19:11:31 10° SW 19:15:53 35° SSE 19:17:03 31° ESE
Cosmos 2098 Rocket 4.1 19:11:39 10° N 19:17:27 41° ENE 19:19:21 30° ESE
Cosmos 1733 3.6 19:13:46 10° SSW 19:17:34 65° WNW 19:21:22 10° N
MetOp-A 4.2 19:16:54 22° SE 19:20:11 55° ENE 19:25:25 10° N
Cosmos 407 Rocket 4.4 19:17:57 10° N 19:22:27 29° NE 19:23:25 27° ENE
Meteor 2-5 Rocket 4.4 19:17:02 10° NNW 19:22:39 57° W 19:28:22 10° S
Resurs 1-3 4.3 19:23:00 33° ENE 19:23:24 34° ENE 19:27:22 10° N
RESURS DK-1 2.2 19:19:43 10° SSW 19:23:50 70° ESE 19:28:00 10° NE
ATLAS 3B R/B 3.2 19:18:41 10° NW 19:25:27 62° WSW 19:31:52 13° SSE
Cosmos 1634 Rocket 4.0 19:20:33 10° S 19:26:44 89° W 19:33:02 10° N
SL-08 RB Rocket 3.6 19:23:00 15° SSE 19:26:47 90° NE 19:31:19 10° NNW
deb Kosmos-1763 4.2 19:24:18 10° NNW 19:27:49 48° ENE 19:27:49 48° ENE
USA 290 4.0 19:28:28 10° N 19:30:11 21° NNE 19:30:11 21° NNE
Cosmos 2026 Rocket 4.4 19:28:08 10° NNW 19:34:28 67° W 19:40:45 10° S
Cosmos 1602 Rocket 4.5 19:31:03 10° N 19:34:33 32° ENE 19:34:33 32° ENE
Cosmos 1461 3.2 19:30:50 10° NW 19:35:36 62° NE 19:36:42 47° ESE
Cosmos 2082 Rocket 2.2 19:30:36 10° NNW 19:36:15 84° WSW 19:39:28 27° SSE
ATLAS 2AS CENTAUR R/B 3.4 19:29:33 10° SW 19:37:29 66° NW 19:45:17 10° NE
Meteor 2-10 4.2 19:35:05 26° SSE 19:37:51 49° E 19:42:55 10° NNE
Cosmos 1626 Rocket 3.7 19:39:49 10° N 19:44:08 52° ENE 19:44:08 52° ENE
H-2A R/B 3.5 19:42:44 10° SSW 19:47:24 36° W 19:52:15 10° NNW
COSMOS 2455 2.7 19:41:40 10° SSW 19:47:40 72° ESE 19:53:42 10° NE
Cosmos 1455 Rocket 2.9 19:43:54 10° S 19:48:17 88° WNW 19:52:39 10° N
Cosmos 2084 4.0 19:46:00 10° NW 19:50:19 44° NE 19:50:28 44° NE
SJ-6B 2.9 19:50:50 57° SSW 19:51:27 71° WSW 19:55:19 10° NNW
OBJECT-B 2.3 19:55:54 30° N 19:55:54 30° N 19:57:42 10° N
ISS -2.8 19:51:29 10° WNW 19:54:07 45° WSW 19:54:07 45° WSW
Cosmos 2279 Rocket 4.0 19:49:11 10° S 19:55:27 86° W 20:01:46 10° N
Meteor 1-21 Rocket 4.2 19:50:46 10° N 19:56:38 72° ENE 19:58:18 48° SE
DMSP B5D2-2 3.9 19:53:45 10° NNE 19:59:05 82° ESE 20:04:22 10° SSW
Meteor 2-19 Rocket 4.5 19:53:12 10° NNW 19:59:19 78° W 20:03:15 23° S
Cosmos 1655 Rocket 3.9 19:54:54 10° N 20:01:15 86° E 20:04:13 34° SSE
ATLAS CENTAUR R/B 3.4 20:03:51 10° NNW 20:05:28 17° N 20:05:28 17° N
Cosmos 2180 Rocket 4.5 20:00:35 10° S 20:06:54 89° W 20:13:21 10° N
Cosmos 2278 Rocket 3.0 20:01:53 10° SW 20:07:24 52° NW 20:12:57 10° NNE
Cosmos 909 Rocket 4.3 20:02:12 10° NW 20:08:33 63° WSW 20:10:59 37° S
Gbstr 26 Del rocket 4.2 20:02:53 10° WSW 20:09:51 80° SSE 20:13:01 40° ENE
Cosmos 1833 Rocket 4.5 20:08:50 10° NW 20:13:33 28° WSW 20:18:14 10° SSW
Cosmos 2251 Rocket 4.4 20:08:43 10° NNW 20:13:49 46° WSW 20:16:09 29° SSW
Cosmos 1190 Rocket 4.2 20:09:22 10° NNW 20:14:05 54° NE 20:14:05 54° NE
Lacrosse 4 Rocket 3.6 20:17:18 10° WNW 20:20:17 20° WSW 20:21:36 17° SW
Lacrosse 5 rocket 2.5 20:18:45 10° WNW 20:22:36 41° WSW 20:22:36 41° WSW
MetOp-B 4.4 20:35:17 61° NNE 20:35:17 61° NNE 20:39:47 10° NNW
CZ-4C R/B 2.5 20:31:27 10° SW 20:36:32 64° NW 20:42:45 10° NE
SPOT 3 Rocket 3.9 20:38:02 59° WSW 20:38:11 60° WSW 20:43:19 10° NNW
Cosmos 2266 Rocket 4.2 20:33:42 10° NNW 20:39:40 65° W 20:40:53 53° SW
Spot 2 Rocket 4.5 20:42:33 39° N 20:42:33 39° N 20:45:49 10° N
CZ-2C R/B 3.8 20:36:51 10° N 20:42:07 43° WNW 20:47:24 10° SW
Cosmos 1140 Rocket 3.9 20:37:38 10° NNW 20:41:41 56° NNW 20:41:41 56° NNW
Terra 4.0 20:45:21 17° NNE 20:45:21 17° NNE 20:46:42 10° N
Resurs 01 Rocket 2.9 20:47:36 40° NW 20:47:36 40° NW 20:50:37 10° NNW
USA 229 DEB 4.2 20:55:05 10° NW 21:02:04 51° NE 21:02:11 51° NE
USA 229 4.2 20:55:11 10° NW 21:02:09 51° NE 21:02:16 51° NE
NOSS 3-1 (A) 4.4 21:07:32 10° NW 21:14:29 51° NE 21:14:31 51° NE
Cosmos 2297 Rocket 4.4 21:23:17 10° N 21:25:58 16° NNE 21:25:58 16° NNE
ATLAS 2AS CENTAUR R/B 4.5 21:22:58 10° WNW 21:29:55 32° NNW 21:36:39 10° NE
COSMOS 2455 4.4 21:28:48 10° W 21:34:08 32° NW 21:39:31 10° NNE
NOSS 3-1 (C) 4.2 21:41:31 10° NW 21:47:29 64° NW 21:47:29 64° NW
CZ-4C R/B 4.2 22:21:34 10° WNW 22:26:20 27° NNW 22:31:54 10° NE
Cosmos 2227 Rocket 4.5 22:21:57 10° NNW 22:23:53 19° N 22:23:53 19° N
ATLAS 2AS CENTAUR R/B 4.5 23:16:39 10° NW 23:23:16 29° N 23:25:52 24° NE
